| time (UTC) | temp C | wind direction | speed KPH | gust KPH | rain 1hr cm | rain 24hr cm | rain mn cm | humidity % | barometer mb |
| 20260502190820 | 18 | 270 | 6.4 | 6.4 | 0.00 | 0.00 | 0.00 | 50 | 1018.6 |
| 20260502185821 | 18 | 270 | 6.4 | 6.4 | 0.00 | 0.00 | 0.00 | 50 | 1018.6 |
| 20260502184819 | 18 | 270 | 4.8 | 6.4 | 0.00 | 0.00 | 0.00 | 48 | 1018.4 |
| 20260502183818 | 19 | 225 | 4.8 | 6.4 | 0.00 | 0.00 | 0.00 | 47 | 1018.3 |
| 20260502182817 | 19 | 202 | 6.4 | 6.4 | 0.00 | 0.00 | 0.00 | 46 | 1018.2 |
| 20260502181817 | 20 | 225 | 8.0 | 12.9 | 0.00 | 0.00 | 0.00 | 44 | 1018.1 |
| 20260502180815 | 20 | 225 | 6.4 | 9.7 | 0.00 | 0.00 | 0.00 | 44 | 1017.9 |
| 20260502163807 | 25 | 270 | 9.7 | 12.9 | 0.00 | 0.00 | 0.00 | 26 | 1018.0 |
| 20260502162810 | 25 | 202 | 12.9 | 16.1 | 0.00 | 0.00 | 0.00 | 26 | 1018.1 |
| 20260502161808 | 25 | 225 | 14.5 | 17.7 | 0.00 | 0.00 | 0.00 | 26 | 1018.2 |
| 20260502160807 | 25 | 225 | 9.7 | 12.9 | 0.00 | 0.00 | 0.00 | 26 | 1018.2 |
| 20260502151807 | 25 | 225 | 12.9 | 17.7 | 0.00 | 0.00 | 0.00 | 26 | 1018.6 |
| 20260502150806 | 25 | 248 | 12.9 | 14.5 | 0.00 | 0.00 | 0.00 | 26 | 1018.7 |
| 20260502123806 | 24 | 270 | 12.9 | 16.1 | 0.00 | 0.00 | 0.00 | 26 | 1020.4 |
| 20260502122806 | 24 | 225 | 17.7 | 22.5 | 0.00 | 0.00 | 0.00 | 26 | 1020.5 |
| 20260502121806 | 24 | 225 | 17.7 | 22.5 | 0.00 | 0.00 | 0.00 | 26 | 1020.6 |
| 20260502120806 | 24 | 270 | 14.5 | 17.7 | 0.00 | 0.00 | 0.00 | 25 | 1020.7 |
| 20260502115807 | 24 | 315 | 12.9 | 14.5 | 0.00 | 0.00 | 0.00 | 25 | 1020.8 |
| 20260502114806 | 23 | 180 | 14.5 | 17.7 | 0.00 | 0.00 | 0.00 | 26 | 1020.8 |
| 20260502113807 | 23 | 225 | 11.3 | 14.5 | 0.00 | 0.00 | 0.00 | 25 | 1020.9 |
| 20260502112807 | 23 | 270 | 17.7 | 19.3 | 0.00 | 0.00 | 0.00 | 26 | 1021.2 |
| 20260502111806 | 23 | 225 | 17.7 | 20.9 | 0.00 | 0.00 | 0.00 | 25 | 1021.3 |
| 20260502110806 | 23 | 270 | 12.9 | 17.7 | 0.00 | 0.00 | 0.00 | 26 | 1021.3 |
| 20260502105807 | 23 | 248 | 12.9 | 17.7 | 0.00 | 0.00 | 0.00 | 25 | 1021.6 |
| 20260502104807 | 23 | 225 | 11.3 | 14.5 | 0.00 | 0.00 | 0.00 | 26 | 1021.6 |
| 20260502103807 | 23 | 225 | 16.1 | 19.3 | 0.00 | 0.00 | 0.00 | 26 | 1021.8 |
| 20260502102807 | 23 | 225 | 16.1 | 17.7 | 0.00 | 0.00 | 0.00 | 27 | 1021.9 |
| 20260502100807 | 23 | 225 | 16.1 | 19.3 | 0.00 | 0.00 | 0.00 | 28 | 1022.2 |
| 20260502090807 | 22 | 315 | 12.9 | 16.1 | 0.00 | 0.00 | 0.00 | 31 | 1022.7 |
| 20260502070807 | 20 | 180 | 3.2 | 4.8 | 0.00 | 0.00 | 0.00 | 33 | 1023.6 |
| 20260502065807 | 19 | 135 | 3.2 | 3.2 | 0.00 | 0.00 | 0.00 | 36 | 1023.6 |
| 20260502064806 | 18 | 180 | 3.2 | 6.4 | 0.00 | 0.00 | 0.00 | 40 | 1023.7 |
| 20260502063806 | 18 | 225 | 4.8 | 6.4 | 0.00 | 0.00 | 0.00 | 42 | 1023.8 |
| 20260502062808 | 18 | 135 | 4.8 | 6.4 | 0.00 | 0.00 | 0.00 | 41 | 1023.8 |
| 20260502061807 | 18 | 90 | 1.6 | 3.2 | 0.00 | 0.00 | 0.00 | 42 | 1023.9 |
| 20260502060807 | 17 | 0 | 1.6 | 3.2 | 0.00 | 0.00 | 0.00 | 43 | 1023.8 |
| 20260502055807 | 16 | 270 | 0.0 | 1.6 | 0.00 | 0.00 | 0.00 | 50 | 1023.8 |
| 20260502054807 | 15 | 315 | 1.6 | 3.2 | 0.00 | 0.00 | 0.00 | 51 | 1023.8 |
| 20260502053806 | 14 | 315 | 3.2 | 4.8 | 0.00 | 0.00 | 0.00 | 52 | 1024.0 |
| 20260502052806 | 13 | 315 | 3.2 | 3.2 | 0.00 | 0.00 | 0.00 | 53 | 1023.9 |
| 20260502051806 | 13 | 270 | 1.6 | 3.2 | 0.00 | 0.00 | 0.00 | 55 | 1023.9 |
| 20260502050806 | 12 | 315 | 1.6 | 3.2 | 0.00 | 0.00 | 0.00 | 55 | 1024.0 |
| 20260502045807 | 12 | 225 | 0.0 | 0.0 | 0.00 | 0.00 | 0.00 | 56 | 1024.0 |
| 20260502044806 | 11 | 225 | 0.0 | 0.0 | 0.00 | 0.00 | 0.00 | 60 | 1024.0 |
| 20260502043807 | 11 | 315 | 1.6 | 3.2 | 0.00 | 0.00 | 0.00 | 60 | 1024.0 |
| 20260502042806 | 11 | 225 | 3.2 | 3.2 | 0.00 | 0.00 | 0.00 | 60 | 1023.9 |
| 20260502041806 | 11 | 270 | 3.2 | 3.2 | 0.00 | 0.00 | 0.00 | 60 | 1023.8 |
| 20260502040805 | 11 | 315 | 6.4 | 6.4 | 0.00 | 0.00 | 0.00 | 60 | 1023.9 |
| 20260502035806 | 10 | 270 | 6.4 | 6.4 | 0.00 | 0.00 | 0.00 | 61 | 1023.8 |
| 20260502034806 | 10 | 315 | 4.8 | 6.4 | 0.00 | 0.00 | 0.00 | 61 | 1023.8 |
| 20260502033807 | 11 | 270 | 3.2 | 3.2 | 0.00 | 0.00 | 0.00 | 60 | 1023.9 |
| 20260502032806 | 10 | 315 | 6.4 | 8.0 | 0.00 | 0.00 | 0.00 | 61 | 1023.9 |
| 20260502031806 | 10 | 270 | 6.4 | 6.4 | 0.00 | 0.00 | 0.00 | 61 | 1023.9 |
| 20260502030806 | 10 | 270 | 4.8 | 6.4 | 0.00 | 0.00 | 0.00 | 60 | 1024.0 |
| 20260502025719 | 11 | 270 | 1.6 | 3.2 | 0.00 | 0.00 | 0.00 | 57 | 1024.2 |
| 20260502024718 | 11 | 315 | 0.0 | 0.0 | 0.00 | 0.00 | 0.00 | 56 | 1024.1 |
| 20260502023718 | 11 | 315 | 3.2 | 4.8 | 0.00 | 0.00 | 0.00 | 56 | 1024.1 |
| 20260502022717 | 11 | 90 | 6.4 | 8.0 | 0.00 | 0.00 | 0.00 | 55 | 1024.0 |
| 20260502021717 | 11 | 45 | 3.2 | 6.4 | 0.00 | 0.00 | 0.00 | 56 | 1024.1 |
| 20260502020716 | 11 | 45 | 4.8 | 6.4 | 0.00 | 0.00 | 0.00 | 57 | 1024.1 |
| 20260502015716 | 11 | 45 | 6.4 | 6.4 | 0.00 | 0.00 | 0.00 | 57 | 1024.0 |
| 20260502014717 | 11 | 90 | 6.4 | 6.4 | 0.00 | 0.00 | 0.00 | 57 | 1024.1 |
| 20260502013715 | 11 | 90 | 6.4 | 8.0 | 0.00 | 0.00 | 0.00 | 56 | 1024.2 |
| 20260502012715 | 11 | 90 | 4.8 | 6.4 | 0.00 | 0.00 | 0.00 | 56 | 1024.2 |
| 20260502011716 | 11 | 0 | 6.4 | 6.4 | 0.00 | 0.00 | 0.00 | 56 | 1024.2 |
| 20260502010714 | 11 | 0 | 6.4 | 8.0 | 0.00 | 0.00 | 0.00 | 57 | 1024.3 |
| 20260502005714 | 10 | 0 | 6.4 | 8.0 | 0.00 | 0.00 | 0.00 | 60 | 1024.3 |
| 20260502004714 | 10 | 0 | 1.6 | 3.2 | 0.00 | 0.00 | 0.00 | 60 | 1024.2 |
| 20260502003712 | 10 | 270 | 3.2 | 3.2 | 0.00 | 0.00 | 0.00 | 59 | 1024.1 |
| 20260502002710 | 11 | 270 | 1.6 | 3.2 | 0.00 | 0.00 | 0.00 | 58 | 1024.3 |
| 20260502001710 | 11 | 0 | 6.4 | 6.4 | 0.00 | 0.00 | 0.00 | 59 | 1024.3 |
| 20260502000708 | 11 | 0 | 6.4 | 6.4 | 0.00 | 0.00 | 0.00 | 59 | 1024.4 |
| 20260501235710 | 11 | 0 | 4.8 | 6.4 | 0.00 | 0.00 | 0.00 | 58 | 1024.3 |
| 20260501234710 | 11 | 0 | 3.2 | 4.8 | 0.00 | 0.00 | 0.00 | 58 | 1024.4 |
| 20260501233709 | 11 | 22 | 3.2 | 4.8 | 0.00 | 0.00 | 0.00 | 56 | 1024.4 |